Regional Weather Roundup
Issued by NWS Sioux Falls, SD

Home | Current Version | Previous Version | Text Only | Print | Product List | Glossary On
Versions: 1 2 3 4 5 6 7 8 9 10 11 12 13 14 15 16 17 18 19 20 21 22 23 24 25 26 27 28 29 30 31 32 33 34 35 36 37 38 39 40 41 42 43 44 45 46 47 48 49 50
949
ASUS43 KFSD 230410
RWRFSD

WEATHER ROUNDUP FOR SE SOUTH DAKOTA/SW MINNESOTA/NW IOWA
NATIONAL WEATHER SERVICE SIOUX FALLS SD
1000 PM CST MON JAN 22 2018

NOTE: "FAIR" INDICATES FEW OR NO CLOUDS BELOW 12,000 FEET WITH NO
SIGNIFICANT WEATHER AND OR OBSTRUCTIONS TO VISIBILITY.


SDZ038>040-050-052>070-230500-
SOUTHEAST SOUTH DAKOTA

CITY           SKY/WX    TMP DP  RH WIND       PRES   REMARKS
BROOKINGS      CLOUDY    23  21  92 N18       29.92R WCI   9
CHAMBERLAIN    CLOUDY    24  23  98 NW8G17    30.03R WCI  15
HURON          CLOUDY    22  21  96 N18       30.02R WCI   7
MADISON        CLOUDY    23  23 100 N21G30    29.92S WCI   8
MITCHELL       CLOUDY    24  22  91 N21G30    30.01R WCI   9
SIOUX FALLS    CLOUDY    26  24  92 N25       29.91R WCI  11
WINNER         MIX PCPN  23  21  92 NW15      30.03R FOG     WCI  10
YANKTON        MIX PCPN  24  21  88 N22       29.95R WCI   9
$$

MNZ071-072-080-081-089-090-097-098-230500-
SOUTHWEST MINNESOTA

CITY           SKY/WX    TMP DP  RH WIND       PRES   REMARKS
FAIRMONT       LGT SNOW  27  26  96 N25G31    29.77R FOG     WCI  12
JACKSON        CLOUDY    28  27  93 N22G35    29.79R WCI  15
LUVERNE        CLOUDY    27  21  80 N21G26    29.87R WCI  13
MARSHALL       CLOUDY    27  22  81 N23G29    29.89R WCI  12
MONTEVIDEO     CLOUDY    27  21  80 NE20G28   29.92S WCI  13
PIPESTONE      CLOUDY    25  21  86 N18       29.87R WCI  11
REDWOOD FALLS  CLOUDY    28  22  78 N12G26    29.86R WCI  18
TRACY          CLOUDY    28  24  87 N20G28    29.87R WCI  15
WINDOM         CLOUDY    27  14  59 NW25      29.82R WCI  11
WORTHINGTON    LGT SNOW  26  24  92 N28G35    29.82R FOG     WCI  10
$$

IAZ001>003-012>014-020>022-031-032-NEZ013-014-SDZ071-230500-
NORTHWEST IOWA

CITY           SKY/WX    TMP DP  RH WIND       PRES   REMARKS
CHEROKEE       CLOUDY    28  26  93 N22G29    29.81R WCI  14
DENISON        LGT RAIN  28  27  93 N26G39    29.78R WCI  13
ESTHERVILLE    FOG       27  27 100 N29G36    29.77R VSB 1   WCI  11
LE MARS        CLOUDY    28  25  86 N21       29.87R WCI  15
ORANGE CITY    CLOUDY    28  27  93 N18G26    29.85R WCI  16
SHELDON        MIX PCPN  27  27 100 N24G31    29.82R WCI  12
SIOUX CITY     FLURRIES  28  26  92 N24G33    29.87R WCI  14
SPENCER        MOCLDY    28  25  88 N26G36    29.78R FOG     WCI  13
STORM LAKE     LGT SNOW  27  27 100 N31G41    29.76R WCI  10
$$

ABBREVIATIONS USED IN REMARKS
   TC - TEMPERATURE IN CELSIUS
  WCI - WIND CHILL INDEX
   HX - HEAT INDEX
  VSB - VISIBILITY





USA.gov is the U.S. government's official web portal to all federal, state and local government web resources and services.